Regional Weather Roundup
Issued by NWS

Home | Current Version | Previous Version | Graphics & Text | Print | Product List | Glossary On
Versions: 1 2 3 4 5 6 7 8 9 10 11 12 13 14 15 16 17 18 19 20 21 22 23 24 25 26 27 28 29 30 31 32 33 34 35 36 37 38 39 40 41 42 43 44 45 46 47 48 49 50
000
ASUS45 KPSR 300310
RWRAZ

ARIZONA REGIONAL HOURLY WEATHER ROUNDUP
NATIONAL WEATHER SERVICE PHOENIX AZ
800 PM MST MON SEP 29 2014

NOTE: FAIR INDICATES FEW OR NO CLOUDS BELOW 12,000 FEET WITH NO
SIGNIFICANT WEATHER AND/OR OBSTRUCTIONS TO VISIBILITY.

AZZ001>003-036-300400-
NORTHWEST ARIZONA

CITY           SKY/WX    TMP DP  RH WIND       PRES   REMARKS
BULLHEAD CITY  CLEAR     82  37  20 CALM      29.83R
KINGMAN        NOT AVBL
$$

AZZ004>008-015-016-018-300400-
NORTH CENTRAL ARIZONA

CITY           SKY/WX    TMP DP  RH WIND       PRES   REMARKS
GRAND CANYON   CLEAR     43  39  86 CALM      30.12R
PRESCOTT       CLEAR     57  37  47 S7        30.04R
FLAGSTAFF      CLEAR     50  31  48 CALM      30.14R
PAYSON         CLEAR     61  37  41 N5        30.06R
$$

AZZ009>014-017-300400-
NORTHEAST ARIZONA

CITY           SKY/WX    TMP DP  RH WIND       PRES   REMARKS
WINSLOW        CLEAR     59  40  49 W9        30.03R
SAINT JOHNS    CLEAR     60  30  32 SW9       30.05R
WINDOW ROCK    CLEAR     51  32  48 CALM      30.11
SHOW LOW       CLEAR     50  32  50 S5        30.13R
$$

AZZ023-300400-
GREATER PHOENIX AREA

CITY           SKY/WX    TMP DP  RH WIND       PRES   REMARKS
PHOENIX        CLEAR     84  38  19 W9        29.81R
BUCKEYE          N/A     73  50  43 NE3       29.84R
GLENDALE       CLEAR     79  43  27 SW5       29.84R
LUKE AFB       CLEAR     76  50  39 W6        29.82R
DEER VALLEY    CLEAR     78  42  27 W7        29.84R
SCOTTSDALE     CLEAR     80  43  26 CALM      29.86R
MESA-FALCON    CLEAR     75  43  31 NW6       29.83R
MESA-GATEWAY   CLEAR     77  48  36 NW3       29.86R
CHANDLER       CLEAR     79  48  34 NW6       29.84
$$

AZZ027-028-300400-
SOUTHWEST MARICOPA COUNTY AND PINAL COUNTY

CITY           SKY/WX    TMP DP  RH WIND       PRES   REMARKS
CASA GRANDE    CLEAR     75  45  33 CALM      29.85R
GILA BEND      CLEAR     77  48  36 CALM      29.80R
$$

AZZ503-504-507>509-300400-
SOUTHEAST ARIZONA

CITY           SKY/WX    TMP DP  RH WIND       PRES   REMARKS
TUCSON         CLEAR     77  38  24 W6        29.92R
DAVIS-MONTHAN  CLEAR     76  35  22 NW7       29.91R
RYAN FIELD       N/A     77  39  25 SW7       29.91
NOGALES        CLEAR     66  58  75 E5        29.99R
SIERRA VISTA   PTCLDY    66  55  68 W7        30.03R
DOUGLAS        CLEAR     71  54  54 W6        29.98R
SAFFORD        CLEAR     75  31  19 NW13      29.89R
$$

AZZ020-021-025-026-031-300400-
SOUTHWEST ARIZONA

CITY           SKY/WX    TMP DP  RH WIND       PRES   REMARKS
YUMA           CLEAR     83  38  20 W5        29.80R
$$

CAZ031-033-041-043-047-048-061-300400-
SOUTHERN CALIFORNIA

CITY           SKY/WX    TMP DP  RH WIND       PRES   REMARKS
DOWNTOWN L.A.  CLEAR     70  56  61 CALM      29.84S
L.A. AIRPORT   CLEAR     69  61  75 S6        29.85S
SAN DIEGO      PTCLDY    70  62  76 NW6       29.88R
BURBANK        CLEAR     75  50  41 NW3       29.86R
ONTARIO        CLEAR     74  54  49 W6        29.86R
RIVERSIDE      CLEAR     75  55  49 SW8       29.86R
PALM SPRINGS   CLEAR     86  40  19 N3        29.82R
EL CENTRO NAS  PTCLDY    82  42  24 SW5       29.79R
IMPERIAL       CLEAR     79  46  31 SW5       29.78R
BLYTHE         CLEAR     82  42  24 CALM      29.81R
NEEDLES        CLEAR     80  35  19 W5        29.83R
$$

NVZ020-UTZ003-300400-
SOUTHERN NEVADA-UTAH

CITY           SKY/WX    TMP DP  RH WIND       PRES   REMARKS
LAS VEGAS      CLEAR     78  36  21 S6        29.86R
SALT LAKE CITY MOCLDY    53  47  79 SE7       29.99S
$$

NMZ009-TXZ055-300400-
NEW MEXICO-WEST TEXAS

CITY           SKY/WX    TMP DP  RH WIND       PRES   REMARKS
ALBUQUERQUE    PTCLDY    67  32  27 N10G23    30.01R
EL PASO        PTCLDY    83  54  36 W7        29.91R
$$


........................KEY........................
SKY/WX - SKY CONDITION/WEATHER
TMP    - TEMPERATURE IN FAHRENHEIT
DP     - DEW POINT IN FAHRENHEIT
RH     - RELATIVE HUMIDITY IN PERCENT
WIND   - DIRECTION AND SPEED IN MILES PER HOUR (MPH)
VRB    - VARIABLE WIND DIRECTION
PRES   - MEAN SEA LEVEL PRESSURE IN INCHES OF MERCURY
         F - FALLING PRESSURE   R - RISING PRESSURE
         S - STEADY PRESSURE
VSB    - VISIBILITY IN MILES
HX     - HEAT INDEX IN FAHRENHEIT
WCI    - WIND CHILL INDEX IN FAHRENHEIT
TC     - TEMPERATURE IN CELSIUS WHICH IS ALSO KNOWN AS
         TEMPERATURE IN CENTIGRADE
AFB    - AIR FORCE BASE
         LUKE AFB IS LUKE AIR FORCE BASE
         DAVIS-MONTHAN IS DAVIS-MONTHAN AIR FORCE BASE
NAS    - NAVAL AIR STATION
         EL CENTRO NAS IS EL CENTRO NAVAL AIR STATION
N/A    - NOT AVAILABLE


USA.gov is the U.S. government's official web portal to all federal, state and local government web resources and services.